Terug naar catalogus

CZ-6A DEB

ActiefSSO
NORAD 54497·DEBRIS·🇨🇳 China

Gelanceerd Nov 11, 2022 vanaf Taiyuan Satellite Launch Center

Loading…

Volgende Passages (komende 24 uur)

TLE

VersSource: Space-Track

Epoch: Sep 14, 2026, 11:18 UTC

1 54497U 22151HZ  26257.47085900  .00000617  00000-0  35416-3 0  9991
2 54497  98.8436 257.6269 0049941  74.9756 285.6936 14.12396840197128

Volg CZ-6A DEB in realtime met AllMySat

Download on the App Store